EW5319 Weather Reports


time (UTC)temp
C
wind
direction
speed
KPH
gust
KPH
rain 1hr
cm
rain 24hr
cm
rain mn
cm
humidity
%
barometer
mb
20260503233550 15 232 9.7 22.5 0.00 0.00 0.00 43 1004.9
20260503232529 15 214 9.7 25.7 0.00 0.00 0.00 43 1004.7
20260503231559 15 223 11.3 30.6 0.00 0.00 0.00 43 1004.7
20260503230528 15 235 14.5 29.0 0.00 0.00 0.00 44 1004.7
20260503225527 16 228 12.9 24.1 0.00 0.00 0.00 43 1004.8
20260503224557 16 227 11.3 22.5 0.00 0.00 0.00 43 1004.9
20260503223556 16 237 9.7 24.1 0.00 0.00 0.00 43 1004.9
20260503222555 16 220 12.9 25.7 0.00 0.00 0.00 43 1005.0
20260503221524 16 229 12.9 19.3 0.00 0.00 0.00 43 1005.0
20260503220524 16 221 12.9 25.7 0.00 0.00 0.00 43 1005.3
20260503215522 16 237 14.5 33.8 0.00 0.00 0.00 43 1005.1
20260503214521 16 233 11.3 24.1 0.00 0.00 0.00 42 1005.1
20260503213520 17 240 14.5 24.1 0.00 0.00 0.00 41 1005.0
20260503212520 17 213 17.7 40.2 0.00 0.00 0.00 40 1005.1
20260503211539 17 215 14.5 33.8 0.00 0.00 0.00 40 1005.3
20260503210548 17 237 9.7 22.5 0.00 0.00 0.00 41 1004.9
20260503205617 17 229 8.0 22.5 0.00 0.00 0.00 44 1005.0
20260503204547 17 231 11.3 29.0 0.00 0.00 0.00 42 1005.0
20260503203545 17 231 11.3 24.1 0.00 0.00 0.00 44 1005.2
20260503202544 17 214 9.7 22.5 0.00 0.00 0.00 45 1005.1
20260503201543 17 242 6.4 19.3 0.00 0.00 0.00 47 1005.3
20260503200602 16 230 8.0 24.1 0.00 0.00 0.00 47 1005.4
20260503195542 17 226 12.9 29.0 0.00 0.00 0.00 45 1005.6
20260503194611 17 234 9.7 25.7 0.00 0.00 0.00 46 1005.7
20260503193540 16 240 9.7 19.3 0.00 0.00 0.00 45 1005.9
20260503192540 16 226 14.5 30.6 0.00 0.00 0.00 45 1006.0
20260503191539 16 226 8.0 22.5 0.00 0.00 0.00 46 1006.1
20260503190708 16 235 14.5 29.0 0.00 0.00 0.00 45 1006.4
20260503185618 17 203 11.3 17.7 0.00 0.00 0.00 47 1006.6
20260503184537 17 246 8.0 22.5 0.00 0.00 0.00 48 1006.5
20260503183806 16 188 4.8 17.7 0.00 0.00 0.00 49 1006.5
20260503182536 16 234 8.0 17.7 0.00 0.00 0.00 49 1007.0
20260503181705 16 237 8.0 17.7 0.00 0.00 0.00 49 1006.8
20260503180534 16 254 11.3 22.5 0.00 0.00 0.00 45 1007.0
20260503175704 16 214 8.0 16.1 0.00 0.00 0.00 47 1007.2
20260503174533 16 222 16.1 29.0 0.00 0.00 0.00 45 1007.1
20260503173532 16 234 12.9 29.0 0.00 0.00 0.00 47 1007.3
20260503172802 16 228 11.3 33.8 0.00 0.00 0.00 47 1007.6
20260503171601 15 238 8.0 22.5 0.00 0.00 0.00 48 1007.5
20260503170800 15 218 14.5 29.0 0.00 0.00 0.00 45 1007.6
20260503150551 13 219 8.0 33.8 0.00 0.00 0.00 49 1008.3
20260503130601 8 241 6.4 16.1 0.00 0.00 0.00 61 1009.2
20260503110532 1 200 1.6 4.8 0.00 0.00 0.00 26 1009.0
20260503081537 1 208 1.6 6.4 0.00 0.03 0.00 37 1009.0
20260503080606 1 212 1.6 4.8 0.00 0.03 0.00 38 1009.1
20260503072543 1 196 1.6 1.6 0.00 0.05 0.00 41 1009.0
20260503071542 1 207 1.6 4.8 0.00 0.05 0.00 42 1009.0
20260503070542 1 205 1.6 4.8 0.00 0.08 0.00 43 1009.0
20260503054536 1 212 1.6 1.6 0.00 0.13 0.00 50 1009.4
20260503053535 1 158 1.6 1.6 0.00 0.13 0.00 52 1009.6
20260503052535 2 206 1.6 4.8 0.00 0.13 0.00 53 1009.6
20260503051634 2 0.0 0.0 0.00 0.13 0.00 54 1009.6
20260503050603 2 0.0 0.0 0.00 0.13 0.00 55 1009.5
20260503045553 2 180 0.0 1.6 0.00 0.13 0.00 55 1009.9
20260503044532 2 0.0 0.0 0.00 0.13 0.00 56 1009.9
20260503043601 2 135 0.0 1.6 0.00 0.13 0.00 57 1009.8
20260503042631 3 0.0 0.0 0.00 0.15 0.00 58 1009.8
20260503041630 3 0.0 0.0 0.00 0.15 0.00 59 1009.9
20260503040659 3 0.0 0.0 0.00 0.15 0.00 59 1009.8
20260503035529 3 135 0.0 1.6 0.00 0.15 0.15 59 1009.8
20260503034558 4 0.0 1.6 0.00 0.15 0.15 59 1010.0
20260503033528 5 215 1.6 1.6 0.00 0.15 0.15 59 1010.0
20260503032647 5 161 0.0 1.6 0.00 0.15 0.15 59 1010.0
20260503031556 5 0.0 0.0 0.00 0.15 0.15 59 1010.0
20260503030556 5 203 0.0 1.6 0.00 0.15 0.15 59 1010.0
20260503025725 5 0.0 0.0 0.00 0.15 0.15 59 1010.1
20260503024524 5 0.0 0.0 0.00 0.15 0.15 60 1010.3
20260503023723 5 0.0 0.0 0.00 0.15 0.15 60 1010.6
20260503022521 5 166 1.6 4.8 0.00 0.15 0.15 60 1010.3
20260503021541 5 0.0 0.0 0.00 0.15 0.15 61 1010.6
20260503020520 5 175 1.6 6.4 0.00 0.15 0.15 61 1010.5
20260503015549 5 197 0.0 1.6 0.00 0.15 0.15 61 1010.4
20260503014549 5 180 0.0 1.6 0.00 0.15 0.15 62 1010.5
20260503013548 5 270 1.6 4.8 0.00 0.15 0.15 62 1010.5
20260503012637 6 270 0.0 1.6 0.00 0.15 0.15 62 1010.5
20260503011545 6 0.0 0.0 0.00 0.15 0.15 62 1010.5
20260503010545 6 270 0.0 1.6 0.00 0.15 0.15 62 1010.2
20260503005544 6 212 1.6 4.8 0.00 0.15 0.15 62 1010.5
20260503004734 6 240 1.6 6.4 0.00 0.15 0.15 62 1010.3
20260503003542 6 252 1.6 4.8 0.00 0.15 0.15 62 1010.2
20260503002542 6 203 1.6 6.4 0.00 0.15 0.15 62 1010.4
20260503001541 6 232 3.2 8.0 0.00 0.15 0.15 62 1010.3
20260503000601 6 270 1.6 6.4 0.00 0.15 0.15 62 1010.3
20260502235610 6 241 3.2 6.4 0.00 0.15 0.15 62 1010.1
20260502234609 6 207 4.8 8.0 0.00 0.15 0.15 61 1010.3